Regional Weather Roundup
Issued by NWS Albany, NY

Home | Current Version | Previous Version | Text Only | Print | Product List | Glossary On
Versions: 1 2 3 4 5 6 7 8 9 10 11 12 13 14 15 16 17 18 19 20 21 22 23 24 25 26 27 28
000
ASUS41 KALY 242310
RWRALY

NEW YORK STATE HOURLY WEATHER ROUNDUP
NATIONAL WEATHER SERVICE ALBANY NY
700 PM EDT TUE APR 24 2018

NOTE: "FAIR" INDICATES FEW OR NO CLOUDS BELOW 12,000 FEET WITH NO
SIGNIFICANT WEATHER AND/OR NO OBSTRUCTIONS TO VISIBILITY.

NYZ032-033-038>043-046>054-057>066-NYZ062>081-082-084-250000-
EAST


CITY           SKY/WX    TMP DP  RH WIND       PRES   REMARKS
ALBANY         CLOUDY    65  30  27 S12G23    30.16F
GLENS FALLS    FAIR      65  28  24 S8        30.14F
POUGHKEEPSIE   FAIR      60  38  43 S7        30.20F
NEWBURGH       MOCLDY    59  43  55 SE9       30.22F
MONTGOMERY     FAIR      59  40  49 S9        30.19F
WHITE PLAINS   MOCLDY    56  40  55 SE9       30.23F
ISLIP          CLOUDY    56  41  57 SE12      30.25F
NEW YORK CITY  CLOUDY    60  39  45 SE13      30.22F
CENTRAL PARK   CLOUDY    59  40  49 MISG      30.25F
$$

NYZ005>009-017-018-044>046-055-056-250000-
CENTRAL


CITY           SKY/WX    TMP DP  RH WIND       PRES   REMARKS
FULTON         FAIR      63  32  31 N5        30.08F
SYRACUSE       CLOUDY    67  30  25 S10       30.06F
ROME           FAIR      68  25  19 S10       30.08F
ELMIRA         CLOUDY    63  37  38 S10G20    30.09F
BINGHAMTON     FAIR      59  34  39 S10       30.12F
MONTICELLO     FAIR      55  39  54 SE17      30.20S
$$

NYZ026>034-041>043-087-250000-
NORTH


CITY           SKY/WX    TMP DP  RH WIND       PRES   REMARKS
WATERTOWN      FAIR      64  29  26 CALM      30.08F
FORT DRUM      NOT AVBL
OGDENSBURG     FAIR      64  35  33 W5        30.09F
MASSENA        FAIR      65  38  36 W5        30.10S
SARANAC LAKE   FAIR      59  17  19 SW3       30.10F
PLATTSBURGH    FAIR      65  25  22 S8        30.08F
$$

NYZ001>004-010>016-019>021-085-250000-
WEST


CITY           SKY/WX    TMP DP  RH WIND       PRES   REMARKS
NIAGARA FALLS  LGT RAIN  56  49  77 CALM      30.08F
BUFFALO        LGT RAIN  55  49  80 NE3       30.08F
DUNKIRK        LGT RAIN  53  50  89 NE5       30.06F
JAMESTOWN      LGT RAIN  50  47  89 SE9       30.05F
WELLSVILLE     CLOUDY    56  37  49 S15G26    30.09F
ROCHESTER      CLOUDY    63  43  48 W5        30.07F
PENN YAN       CLOUDY    63  36  36 S6        30.08F
$$

             KEY
       WCI = WIND CHILL INDEX
       VSB = VISIBILITY
       HX  = HEAT INDEX
$$




USA.gov is the U.S. government's official web portal to all federal, state and local government web resources and services.